Location: Altoona
(40.5167°N, 78.4000°W)
Time: 15:16:51
(UTC-04:00)

Delta 2 Rocket - Pass Details

Date: 21 August 2017
Orbit: 416 x 820 km, 35.6° (Epoch: 24 September)

Event Time Altitude Azimuth Distance (km) Brightness Sun altitude
Rises 20:44:11 0° 232° (SW) 2,539 7.1 -8.3°
Reaches altitude 10° 20:46:29 10° 219° (SW) 1,722 6.1 -8.7°
Maximum altitude 20:49:51 27° 160° (SSE) 1,071 4.4 -9.3°
Enters shadow 20:52:58 13° 107° (ESE) 1,716 5.2 -9.9°
